RH
61 69 79 97 96 95 95 94 94 95 95 96 94 93 91 90 91 91 92 93 93 93 92 91 90 91 92 93 91 85 40 39
61 65 68 69 73 97 96 95 96 96 96 97 96 94 91 91 92 91 92 92 92 92 91 89 90 91 92 95 94 89 41 41
64 67 75 70 64 72 94 96 96 97 93 98 91 56 61 70 71 92 91 91 91 92 91 90 91 92 93 93 94 41 43 44
61 71 79 76 71 75 72 65 64 64 63 69 62 55 53 50 67 93 91 90 92 91 92 94 86 48 56 86 44 44 42 42
57 66 74 80 74 75 75 54 57 59 62 61 63 56 57 52 53 58 62 82 57 68 69 56 53 43 43 47 44 49 44 40
50 57 68 77 63 69 75 76 68 59 59 71 76 75 66 58 48 46 50 50 50 52 50 53 53 50 47 51 51 42 48 53
43 53 62 64 69 59 66 71 66 56 59 74 71 63 66 57 54 48 45 43 47 48 46 49 54 51 48 50 49 47 55 88
38 49 56 61 63 66 62 59 56 58 56 73 83 62 65 64 56 52 47 43 43 46 47 48 50 50 53 52 48 46 54 66
36 43 50 58 60 62 59 54 55 55 53 69 81 78 73 72 57 56 50 49 53 51 54 51 48 48 53 52 46 49 52 66
22 36 47 52 55 54 52 49 53 52 52 53 81 84 79 80 68 56 54 55 53 53 54 61 55 48 50 46 44 43 50 54
19 25 41 56 62 62 59 58 54 50 51 53 66 84 84 77 64 72 70 63 59 57 56 58 61 49 47 48 46 44 48 42
24 23 28 42 58 69 62 53 53 49 48 50 63 81 82 82 77 69 79 73 72 66 67 60 59 53 44 50 53 50 50 56
27 29 29 30 32 48 52 53 54 54 50 56 57 66 76 84 84 78 79 76 74 81 82 86 71 72 62 69 73 62 59 53
33 27 26 23 21 29 42 48 49 50 53 59 59 64 72 76 81 81 79 79 81 91 91 93 88 83 82 84 93 87 72 61
34 34 29 27 30 25 36 49 56 66 79 74 64 66 67 75 71 80 88 90 90 93 94 93 96 96 78 65 94 83 76 61
40 39 34 31 32 37 39 49 60 66 65 78 77 72 70 78 78 78 94 96 94 93 94 94 94 94 95 76 65 56 64 79
51 45 44 45 47 47 43 52 54 64 82 86 86 80 76 76 79 78 84 89 95 90 93 95 94 92 95 88 76 67 56 46
76 79 76 78 67 58 60 70 69 70 75 93 92 90 89 84 77 74 75 84 89 92 91 94 96 94 93 89 77 77 64 54
80 84 81 84 89 87 78 71 70 80 78 77 82 84 81 84 87 88 75 64 77 82 89 93 95 95 92 91 82 69 61 52
84 78 84 83 85 88 89 92 93 82 77 69 60 66 84 90 90 86 91 81 81 87 89 94 94 95 92 90 88 84 73 69
Wind_Speed
10 12 11 7 8 10 11 11 11 9 9 10 11 11 11 11 11 11 11 11 12 13 12 12 11 11 10 9 7 6 6 6
11 11 12 13 12 8 10 11 12 11 9 8 8 9 9 9 9 10 10 11 12 13 12 11 11 10 9 6 5 3 5 7
11 11 10 11 11 11 8 7 9 9 9 7 8 11 13 13 10 12 10 10 11 12 12 10 9 7 7 8 10 6 6 3
12 13 12 11 9 9 12 12 11 12 13 14 11 12 12 12 10 9 9 9 9 10 11 9 10 9 7 6 7 7 5 5
13 13 12 12 10 8 6 7 9 10 14 13 14 9 10 9 8 8 9 9 8 10 10 10 12 8 8 8 6 6 4 5
14 15 14 13 9 9 8 7 8 9 11 12 9 8 10 11 9 11 10 9 10 11 9 11 11 10 8 8 8 7 4 2
17 16 15 13 13 10 11 11 11 12 12 13 12 12 10 11 11 11 11 11 10 10 10 10 10 11 10 10 9 8 7 3
16 17 17 16 15 14 12 12 13 13 12 12 14 12 10 12 11 11 11 11 11 11 10 10 10 9 10 10 9 8 8 9
15 17 17 17 19 17 14 12 13 13 13 16 14 14 12 14 11 11 11 10 12 11 11 10 10 9 10 10 9 9 9 8
10 10 15 17 16 14 13 14 14 13 13 12 15 15 13 11 10 12 12 11 11 10 11 10 11 10 10 9 9 9 11 11
8 7 12 16 16 12 14 14 14 14 13 13 17 15 15 12 12 9 9 10 11 11 11 11 10 11 10 9 9 9 10 10
12 8 10 12 12 11 10 13 13 14 14 14 17 13 17 14 10 13 10 10 9 10 12 11 10 10 10 9 9 8 7 9
17 15 12 9 11 11 12 14 14 14 14 18 19 17 20 16 11 13 12 13 13 11 9 11 10 9 8 6 5 7 8 9
19 18 18 13 10 11 12 12 13 13 13 14 18 19 19 17 14 11 11 10 11 10 10 6 7 11 8 6 5 6 8 10
21 21 20 17 16 13 12 12 11 11 10 12 16 20 18 18 19 12 11 7 7 10 11 12 8 8 14 7 4 7 7 10
24 22 21 18 17 15 19 14 15 14 14 11 13 17 19 17 19 17 14 13 11 8 9 11 9 11 7 11 8 6 8 6
22 21 19 19 18 18 16 19 14 10 9 12 14 15 16 16 18 18 13 11 12 12 11 13 11 8 9 7 12 8 9 8
27 23 11 14 18 17 18 17 17 13 14 10 11 10 10 14 15 15 15 12 15 10 11 14 13 11 9 10 10 11 12 11
23 23 17 16 12 9 11 17 20 12 12 12 9 6 5 7 4 10 11 15 10 10 16 16 15 12 14 11 10 12 11 12
23 23 21 21 15 13 9 9 1 4 3 4 7 7 7 8 7 5 16 11 13 14 12 12 13 14 17 14 11 11 11 10
Wind_Direction
164 176 173 163 173 168 165 164 171 177 174 168 161 156 158 161 160 158 158 148 142 143 146 148 148 142 138 145 155 211 165 159
174 178 187 191 190 185 176 171 174 173 175 171 162 152 158 160 155 159 160 155 150 149 152 155 151 147 148 144 129 219 225 151
178 174 189 200 208 187 186 181 172 167 169 147 161 189 180 167 183 150 166 164 154 153 157 157 136 133 134 152 174 199 172 143
187 178 189 195 197 206 207 197 203 200 195 185 201 200 187 188 153 156 166 167 156 157 157 145 182 170 171 171 207 198 201 185
195 183 185 195 196 194 207 204 198 202 203 198 204 195 187 196 169 174 177 182 183 178 168 194 202 195 178 189 196 181 214 203
203 196 188 192 196 195 194 194 214 203 212 209 199 194 198 191 187 182 187 182 189 194 189 204 197 207 193 197 213 218 146 151
211 197 195 190 204 196 199 202 205 210 202 205 212 207 200 204 194 189 190 183 189 195 199 197 203 204 202 207 208 213 188 163
214 209 201 190 199 207 203 203 202 215 206 208 207 215 202 218 201 200 197 192 190 195 198 195 202 206 204 212 219 198 198 176
233 213 214 209 203 200 205 210 211 209 213 201 208 208 206 212 214 206 201 200 199 198 195 202 197 201 213 205 213 212 197 175
286 239 217 219 220 215 214 209 207 213 214 208 201 209 208 206 210 217 201 201 196 203 199 179 216 201 206 213 211 213 199 202
303 274 238 225 221 223 220 226 218 213 214 211 200 206 200 201 214 211 211 201 205 204 203 198 210 207 207 212 214 219 198 202
323 290 268 242 237 232 234 224 227 226 217 216 195 200 200 201 204 206 205 209 201 206 209 207 201 210 212 207 213 219 216 216
324 314 297 264 243 231 226 228 222 223 222 216 208 202 203 197 199 205 197 206 208 197 198 180 207 202 207 216 235 223 216 222
318 310 305 288 259 241 235 231 235 232 225 213 211 208 203 204 200 199 196 213 215 192 188 184 197 189 184 167 201 208 222 224
310 304 296 286 276 266 240 235 239 226 221 216 212 208 209 203 205 190 174 188 212 194 196 196 197 204 201 177 166 217 192 206
304 298 291 283 273 258 251 232 227 223 219 211 213 209 208 199 201 196 166 152 231 214 202 203 203 210 210 226 227 217 201 157
312 291 282 278 271 255 249 232 235 215 206 206 210 212 210 204 203 194 191 176 179 212 218 206 208 207 207 201 230 235 240 247
340 340 339 321 283 261 244 235 224 213 209 205 198 205 198 202 201 215 207 179 188 187 215 215 211 213 203 214 215 216 222 224
345 345 352 343 355 352 281 239 225 215 209 207 183 168 145 107 25 278 241 220 191 211 202 211 210 209 209 207 224 224 229 228
348 346 352 352 354 360 12 8 117 151 131 160 184 167 155 155 168 250 270 236 215 208 213 212 210 219 216 213 213 229 233 232